Temperature
18 18 18 18 18 18 18 18 18 18 18 18 18 18 18 18 18 18 18 18 18 18 18 18 18 18 18 18 18 18 18 18 18 18 18 18 18 18 18 18 18 18 18
18 18 18 18 18 18 18 18 18 18 18 18 18 18 18 18 18 18 18 18 18 18 18 18 18 18 18 18 18 18 18 18 18 18 18 18 18 18 18 18 18 18 18
18 18 18 18 18 18 18 18 18 18 18 18 18 18 18 18 18 18 18 18 18 18 18 18 18 18 18 18 18 18 18 18 18 18 18 18 18 18 18 18 18 18 18
18 18 18 18 18 18 18 18 18 18 18 18 18 18 18 18 18 17 17 17 17 17 18 18 18 18 18 18 18 18 18 17 18 17 17 17 17 17 17 17 18 18 18
18 18 18 18 18 18 18 18 18 18 18 18 18 17 18 17 17 17 17 17 17 17 18 18 18 18 18 18 18 18 17 17 17 17 17 17 17 17 17 17 17 17 17
18 18 18 18 18 18 18 18 18 17 17 17 17 17 17 17 17 17 17 17 17 17 18 18 18 18 18 17 17 17 17 17 17 17 17 17 17 17 17 17 17 17 17
18 18 18 18 18 18 18 18 18 17 17 17 17 17 17 17 17 17 17 17 17 17 17 17 17 17 17 17 17 17 17 17 17 17 17 17 17 17 17 17 17 17 17
18 18 18 18 18 18 18 18 17 17 17 17 17 17 17 17 17 17 17 17 17 17 17 17 17 17 17 17 17 17 17 17 17 17 17 17 17 17 17 17 17 17 17
18 18 18 18 18 17 17 17 17 17 17 17 17 17 17 17 17 17 17 17 17 17 17 17 17 17 17 17 17 17 16 17 16 16 16 16 16 17 17 17 17 17 17
18 18 18 17 17 17 17 17 17 17 17 17 17 17 17 16 16 16 17 16 16 17 17 17 17 17 16 16 16 16 16 16 16 16 16 16 16 16 16 16 16 16 16
18 18 18 17 17 17 17 17 17 17 17 17 17 16 16 16 16 16 16 16 16 16 16 16 16 16 16 16 16 16 16 16 16 16 16 16 16 16 16 16 16 16 16
18 18 18 18 17 17 17 17 17 17 17 17 16 16 16 16 16 16 16 16 16 16 16 16 16 16 16 16 16 16 16 16 16 16 16 16 16 16 16 16 16 16 16
18 18 18 18 17 17 17 17 17 17 17 17 16 16 16 16 16 16 16 16 16 16 16 16 16 16 16 16 16 16 16 16 15 15 15 16 16 16 16 16 16 16 16
19 18 18 18 17 17 17 17 17 16 16 16 16 16 16 16 16 16 16 15 15 15 16 16 16 16 16 16 15 15 15 15 15 15 15 15 15 15 15 15 15 15 15
19 18 18 18 18 17 17 17 17 16 16 16 16 16 16 16 16 16 16 15 15 15 15 15 15 15 15 15 15 15 15 15 15 15 15 15 15 15 15 15 15 15 15
19 18 18 18 17 17 17 17 17 16 16 16 16 16 16 16 16 15 15 15 15 15 15 15 15 15 15 15 15 15 15 15 15 15 15 15 15 15 15 15 15 15 15
19 18 18 18 17 17 17 16 16 16 16 16 16 16 16 15 15 15 15 15 15 15 15 15 15 15 15 15 15 15 14 14 14 14 14 14 14 14 15 15 15 15 14
19 18 18 17 17 17 17 16 16 16 16 16 16 16 16 15 15 15 15 15 15 15 15 15 15 14 14 14 14 14 14 14 14 14 14 14 14 14 14 14 14 14 14
18 18 18 17 17 17 16 16 16 16 16 16 16 16 15 15 15 15 15 15 15 15 14 14 14 14 14 14 14 14 14 14 14 14 14 14 14 14 14 14 14 14 14
18 18 18 17 17 16 16 16 16 16 15 15 15 15 15 15 15 15 15 15 14 14 14 14 14 14 14 14 14 14 14 14 14 14 14 14 14 14 14 14 14 14 14
18 18 18 17 17 16 16 16 16 15 15 15 15 15 15 15 15 15 14 14 14 14 14 14 14 14 14 14 14 14 14 14 14 14 14 14 13 13 13 13 13 13 13
18 17 17 17 17 16 16 16 16 15 15 15 15 15 15 15 15 14 14 14 14 14 14 14 14 14 14 14 14 14 14 14 14 14 14 14 13 13 13 13 13 13 13
18 17 17 17 17 16 16 16 15 15 15 15 15 15 15 15 15 14 14 14 14 14 14 14 14 14 14 14 14 14 14 13 13 13 13 13 13 13 13 13 13 13 13
17 17 17 17 16 16 16 16 15 15 15 15 15 15 14 14 14 14 14 14 14 14 14 13 13 13 13 13 14 14 14 14 13 13 13 13 13 13 13 13 13 13 13
17 17 16 16 16 16 16 16 15 15 15 14 14 14 14 14 14 14 14 14 14 14 13 13 13 13 13 13 13 13 14 14 14 13 13 13 13 13 13 13 13 13 12
17 17 16 16 16 16 16 15 15 15 15 14 14 14 14 14 14 14 14 14 14 13 13 13 13 13 13 13 13 13 13 13 13 13 13 13 12 12 12 13 12 12 12
Wind_Speed
6 9 10 11 12 12 12 12 12 12 12 12 12 11 10 10 9 9 8 9 9 10 10 10 9 10 10 10 10 10 10 9 9 10 10 9 8 8 8 8 8 8 10
7 9 11 11 12 12 12 12 12 13 13 13 12 12 11 11 10 10 10 10 10 11 10 10 9 10 10 10 9 9 9 8 8 8 8 8 9 8 8 8 9 9 10
8 10 11 11 12 12 12 12 13 13 13 14 13 13 13 13 13 12 11 11 11 11 10 10 10 10 10 9 9 8 7 7 7 6 6 7 8 8 9 9 10 9 9
9 11 11 11 12 12 12 13 13 13 14 14 14 14 14 14 13 12 12 11 11 10 10 9 9 10 10 9 8 8 7 7 6 6 5 7 8 9 9 9 9 9 9
11 12 11 11 12 12 12 13 13 14 14 14 13 14 14 14 14 14 13 11 11 10 9 9 9 9 9 9 8 7 7 8 8 7 8 9 8 9 9 8 8 8 9
11 12 11 11 11 12 13 13 14 13 14 14 13 13 14 14 14 14 13 12 10 10 10 10 10 9 9 8 8 8 8 8 8 8 8 8 8 8 8 7 7 8 8
10 11 11 11 12 12 13 13 13 13 13 13 13 13 13 14 14 14 14 13 12 10 10 10 10 9 9 8 8 8 8 9 8 8 8 8 8 9 8 8 8 8 8
9 10 12 11 12 12 12 12 12 12 13 13 13 13 13 14 14 14 13 13 13 12 10 9 9 9 9 9 9 8 9 9 8 9 9 8 9 10 10 9 10 9 9
8 8 9 9 10 11 11 11 11 11 11 11 11 11 12 13 14 14 13 12 11 11 10 10 10 10 10 9 8 8 9 10 9 8 9 8 9 11 11 11 11 10 10
6 6 7 7 8 9 9 8 8 8 8 8 8 9 10 11 12 13 13 12 11 10 10 10 10 10 9 8 7 7 7 8 8 9 8 9 12 11 11 11 11 10 10
5 5 5 6 6 7 7 7 6 6 5 5 5 6 6 7 9 10 11 11 11 11 10 10 9 8 7 7 7 6 6 7 8 9 9 11 12 12 12 11 11 11 11
4 4 4 5 5 6 6 6 4 4 4 4 5 5 5 7 8 9 8 9 9 9 8 8 7 7 5 5 6 6 6 8 8 9 10 12 11 11 11 12 12 12 12
4 3 4 5 5 5 4 4 3 3 3 4 6 7 7 6 6 5 4 4 5 6 5 6 5 5 5 5 5 6 8 8 8 9 10 12 12 12 12 13 13 13 13
4 3 3 4 5 5 4 3 3 3 3 3 5 6 6 3 3 3 4 4 4 4 5 4 4 6 7 7 7 7 8 7 9 9 10 12 12 13 13 13 13 13 14
4 4 4 4 4 5 3 1 3 3 3 4 5 6 7 3 3 3 3 4 5 5 5 4 5 6 6 6 7 7 7 8 9 10 10 13 13 13 13 12 12 13 13
5 5 4 4 4 3 3 3 3 2 4 4 4 5 7 5 4 3 3 3 3 4 4 5 5 5 5 5 6 6 6 7 8 10 10 11 12 12 12 12 12 12 12
5 5 4 3 4 3 4 3 3 3 4 3 3 5 7 6 5 4 3 3 3 5 5 5 5 4 5 5 5 5 6 6 7 9 10 9 9 11 11 12 11 11 11
5 5 5 3 4 4 3 3 3 3 3 3 4 5 5 6 7 4 3 3 5 5 4 4 4 5 4 4 4 4 4 4 5 7 8 8 8 9 10 11 11 10 10
4 5 5 4 4 4 3 3 3 3 3 3 4 4 5 6 6 4 3 3 5 4 3 4 4 4 3 3 3 4 4 4 4 5 5 6 8 9 9 9 10 10 9
4 5 5 5 4 3 2 2 2 2 2 3 3 3 4 5 6 4 2 3 4 3 3 4 4 3 2 2 4 4 3 3 3 4 4 5 6 7 7 8 7 7 9
4 4 5 4 4 3 2 2 2 1 2 2 2 3 4 4 5 3 3 3 3 3 3 3 3 3 2 2 3 3 2 3 3 3 3 3 4 5 6 6 6 6 6
4 4 4 4 4 4 2 2 2 2 2 3 2 3 3 4 5 3 3 3 3 2 3 3 3 2 1 2 2 2 2 2 2 2 2 3 3 3 4 5 6 6 7
4 4 3 3 4 4 3 2 2 2 2 2 2 2 2 3 4 3 3 2 2 3 2 3 3 2 1 1 2 2 2 1 0 2 2 2 2 2 2 3 5 6 6
4 4 4 4 3 3 4 3 3 2 2 2 2 2 1 3 2 2 2 2 2 3 3 2 2 1 1 1 1 2 2 3 2 0 2 2 2 3 2 3 4 5 6
5 4 3 4 3 2 3 4 3 2 2 2 3 3 2 2 2 2 2 2 2 2 2 2 2 1 1 1 1 1 2 1 1 2 0 1 2 2 2 2 3 4 5
5 4 3 3 3 3 3 3 3 3 3 3 2 3 2 2 1 1 2 2 2 2 1 2 1 1 1 1 0 1 1 1 0 1 1 1 0 0 1 1 2 3 4
Wind_Direction
75 72 49 45 46 46 47 48 47 47 46 46 45 46 51 52 56 71 88 91 92 96 95 93 91 90 89 91 95 99 100 97 96 93 90 89 89 92 96 95 91 89 94
89 80 62 50 49 48 50 51 51 49 48 49 50 49 53 56 60 72 80 87 89 91 92 89 89 92 93 90 91 95 95 95 98 99 95 89 85 84 87 86 85 92 94
91 85 67 53 53 51 52 54 55 53 51 52 53 53 53 56 61 70 76 78 83 88 89 88 87 92 93 91 91 92 92 92 91 94 90 94 91 87 90 90 92 94 94
87 79 68 60 56 55 55 55 56 55 54 54 55 56 55 56 58 65 70 73 79 85 89 90 91 92 92 93 92 89 82 82 81 83 83 88 90 92 93 93 93 96 94
86 82 75 67 62 58 58 58 57 57 56 57 58 59 58 58 60 62 64 70 76 79 84 89 92 93 92 92 89 83 81 79 74 73 75 75 80 93 93 91 91 95 94
91 88 83 75 70 66 64 62 60 59 57 58 60 62 62 63 62 62 62 68 77 81 85 88 91 91 88 84 78 74 77 78 73 70 69 72 79 87 92 96 97 97 96
95 97 94 86 80 75 70 65 63 62 60 60 62 63 63 63 64 64 63 65 69 79 84 87 88 89 85 78 75 73 77 80 81 76 71 70 74 78 84 93 102 97 97
96 101 107 99 92 84 77 72 68 65 63 64 65 66 65 64 66 67 67 67 66 71 81 86 91 89 87 83 77 69 63 70 83 82 79 75 76 77 78 89 97 95 98
91 104 114 116 107 95 87 81 76 71 69 70 69 70 68 66 67 68 68 68 67 69 75 82 87 89 87 85 76 68 62 58 67 75 79 79 82 84 83 85 89 93 93
89 96 108 113 112 112 105 93 87 80 75 76 72 74 75 72 70 69 67 67 65 68 83 93 97 96 94 92 81 71 67 65 75 74 74 79 85 84 83 82 85 91 93
92 101 109 111 108 109 114 103 103 96 84 80 74 78 84 80 78 74 73 71 66 69 84 97 102 102 103 98 86 78 77 82 80 79 79 84 86 85 84 81 82 85 85
92 89 100 107 111 105 95 102 98 88 89 81 71 80 77 72 78 82 84 78 73 74 86 96 101 102 99 97 89 87 80 83 80 81 82 84 85 86 86 84 84 83 82
105 94 95 108 106 104 95 94 89 73 64 58 59 65 63 67 79 86 90 85 76 73 72 86 97 99 98 98 93 84 80 81 81 81 81 82 82 83 83 82 83 84 83
97 98 96 94 103 99 91 88 83 68 58 50 48 70 64 50 51 61 73 60 65 58 54 61 64 62 70 73 77 82 77 81 87 86 84 84 84 84 85 84 85 84 84
124 107 94 87 91 102 110 115 93 73 70 68 41 57 69 60 62 54 67 63 58 56 55 52 57 53 53 57 63 69 76 82 88 88 88 86 84 87 89 86 86 87 87
124 116 107 107 100 107 109 99 97 92 80 75 52 57 69 63 67 68 61 64 58 63 64 68 67 57 56 56 56 54 60 75 88 96 97 90 86 88 89 86 87 88 88
122 114 107 108 95 89 87 87 85 76 80 66 54 58 61 64 64 63 64 62 58 62 66 70 70 68 70 66 61 57 56 56 80 91 100 101 93 89 89 85 85 85 84
122 117 111 100 97 89 83 76 75 74 72 66 57 52 55 63 68 63 63 60 54 59 60 69 66 63 59 60 60 62 62 51 61 89 95 99 103 98 93 88 87 86 86
124 119 116 99 87 80 87 86 72 71 72 68 61 47 50 60 68 69 64 61 56 54 58 68 61 69 71 71 72 76 70 61 49 72 81 94 102 110 108 98 92 86 85
130 120 113 105 97 94 104 100 88 77 75 71 71 59 50 63 67 68 74 67 64 66 64 70 70 63 69 73 85 90 87 79 64 54 59 77 90 99 106 115 109 91 84
132 126 125 122 122 113 104 106 109 109 106 92 79 70 57 62 73 74 79 76 79 82 84 79 79 68 58 64 74 76 69 75 74 69 59 66 70 85 93 104 109 107 97
130 127 139 135 132 118 101 127 129 123 122 117 100 83 71 65 69 75 98 91 89 85 78 75 71 68 41 63 89 92 71 29 24 58 65 70 57 67 83 91 99 102 104
139 144 132 127 121 124 123 117 117 107 99 100 100 92 82 81 74 63 65 93 113 108 101 96 90 79 61 9 51 91 115 132 28 10 53 67 58 55 59 67 84 91 98
144 140 135 128 123 127 135 132 135 139 148 157 140 134 128 99 93 82 70 76 88 100 105 122 117 103 101 42 12 23 80 119 123 29 353 26 62 63 60 61 66 77 88
145 142 144 136 136 129 124 136 146 133 141 141 131 135 143 127 100 91 80 72 91 98 102 86 102 96 85 83 69 35 39 54 115 131 136 339 22 37 62 76 79 87 90
139 140 144 136 139 132 121 142 157 146 145 141 144 147 147 141 150 117 104 93 91 102 96 89 98 111 113 80 67 68 108 93 95 114 149 174 125 298 58 77 102 101 102
Height
1513 1511 1510 1509 1507 1506 1505 1504 1503 1503 1502 1500 1499 1498 1496 1494 1492 1492 1494 1497 1499 1501 1503 1505 1506 1506 1507 1508 1509 1511 1512 1513 1514 1515 1516 1516 1516 1517 1518 1518 1519 1520 1521
1514 1512 1511 1510 1509 1507 1506 1505 1505 1504 1503 1502 1501 1499 1497 1495 1492 1492 1495 1498 1501 1502 1504 1505 1507 1508 1508 1509 1511 1512 1513 1514 1515 1516 1516 1516 1517 1517 1518 1519 1520 1520 1521
1515 1513 1512 1511 1510 1509 1508 1507 1506 1506 1505 1504 1503 1501 1499 1497 1494 1494 1497 1500 1502 1503 1505 1506 1507 1508 1509 1510 1512 1513 1514 1515 1516 1516 1517 1517 1517 1518 1519 1519 1520 1521 1522
1516 1514 1513 1512 1512 1511 1510 1509 1508 1507 1507 1506 1505 1503 1502 1500 1499 1499 1500 1502 1503 1505 1506 1507 1508 1509 1510 1511 1512 1514 1515 1516 1516 1517 1517 1518 1518 1518 1519 1520 1520 1521 1522
1517 1515 1514 1514 1513 1512 1512 1511 1510 1509 1509 1508 1507 1506 1505 1504 1503 1503 1503 1504 1504 1505 1506 1507 1509 1510 1511 1512 1513 1514 1516 1516 1517 1517 1518 1518 1518 1518 1519 1519 1520 1522 1523
1518 1517 1516 1515 1514 1514 1513 1513 1512 1511 1511 1510 1509 1508 1508 1507 1506 1505 1505 1505 1505 1506 1507 1508 1509 1511 1512 1513 1514 1515 1516 1517 1518 1518 1518 1519 1518 1518 1517 1517 1519 1521 1523
1519 1518 1517 1516 1516 1515 1515 1515 1514 1513 1513 1512 1511 1511 1510 1509 1508 1507 1507 1506 1506 1506 1507 1508 1510 1511 1512 1514 1515 1516 1517 1518 1519 1519 1519 1519 1519 1518 1515 1515 1517 1521 1523
1520 1519 1518 1518 1518 1517 1517 1516 1516 1515 1515 1514 1513 1513 1512 1511 1510 1509 1508 1508 1507 1507 1508 1509 1510 1512 1513 1514 1516 1517 1518 1519 1520 1520 1520 1521 1520 1518 1516 1515 1518 1521 1524
1521 1520 1520 1519 1519 1519 1518 1518 1518 1517 1517 1516 1515 1515 1514 1513 1512 1511 1510 1509 1508 1507 1506 1508 1510 1512 1514 1515 1517 1518 1519 1519 1521 1521 1521 1522 1522 1521 1520 1520 1521 1523 1525
1522 1522 1521 1521 1521 1520 1520 1520 1519 1519 1518 1518 1518 1517 1516 1515 1514 1513 1512 1511 1508 1505 1503 1506 1510 1513 1515 1517 1518 1519 1520 1521 1522 1522 1523 1523 1523 1523 1523 1523 1524 1525 1526
1523 1523 1522 1522 1522 1522 1521 1521 1521 1520 1520 1520 1519 1519 1518 1517 1516 1515 1514 1513 1510 1506 1503 1507 1511 1515 1517 1519 1520 1521 1522 1522 1523 1524 1524 1525 1525 1525 1525 1525 1526 1527 1527
1524 1524 1524 1523 1523 1523 1523 1522 1522 1522 1522 1521 1521 1521 1520 1520 1519 1518 1516 1515 1513 1511 1510 1512 1515 1517 1519 1520 1522 1522 1523 1524 1524 1525 1526 1526 1526 1526 1526 1527 1527 1528 1529
1524 1524 1524 1524 1524 1524 1523 1523 1523 1523 1523 1523 1523 1522 1522 1521 1520 1519 1519 1518 1517 1516 1516 1517 1519 1520 1522 1523 1524 1524 1525 1525 1526 1526 1527 1528 1528 1528 1528 1528 1529 1529 1530
1524 1524 1525 1525 1525 1524 1524 1524 1524 1524 1524 1524 1524 1523 1523 1522 1522 1521 1521 1520 1520 1520 1520 1521 1522 1523 1524 1525 1526 1526 1526 1527 1527 1528 1529 1529 1529 1529 1530 1530 1530 1531 1531
1524 1524 1525 1525 1525 1525 1525 1525 1525 1525 1525 1525 1525 1525 1524 1523 1523 1523 1523 1523 1523 1523 1523 1524 1525 1525 1526 1527 1527 1528 1528 1529 1529 1529 1530 1531 1531 1531 1531 1531 1532 1532 1532
1523 1524 1524 1525 1525 1525 1525 1525 1525 1526 1526 1526 1526 1526 1525 1525 1525 1524 1524 1524 1525 1526 1526 1526 1527 1527 1527 1528 1529 1529 1530 1530 1531 1531 1531 1532 1532 1533 1533 1533 1533 1533 1534
1523 1523 1524 1525 1525 1525 1525 1525 1526 1526 1526 1526 1526 1526 1526 1526 1526 1526 1526 1526 1526 1527 1528 1528 1529 1529 1529 1530 1530 1531 1532 1532 1532 1532 1533 1533 1534 1534 1534 1534 1534 1535 1535
1522 1522 1523 1524 1524 1525 1525 1525 1525 1526 1526 1526 1527 1527 1527 1527 1527 1527 1527 1527 1528 1528 1529 1529 1530 1530 1531 1531 1532 1532 1533 1533 1534 1534 1534 1535 1535 1535 1535 1536 1536 1536 1536
1521 1521 1522 1522 1523 1524 1524 1525 1525 1525 1526 1526 1527 1527 1527 1527 1527 1527 1528 1528 1529 1529 1530 1530 1531 1531 1532 1532 1533 1534 1534 1534 1535 1536 1536 1536 1536 1536 1536 1537 1537 1537 1537
1520 1520 1521 1521 1522 1522 1523 1524 1524 1525 1525 1526 1526 1527 1527 1527 1528 1528 1528 1529 1529 1529 1530 1531 1531 1532 1533 1533 1534 1535 1536 1536 1536 1537 1537 1538 1538 1538 1538 1538 1538 1537 1537
1519 1520 1520 1520 1521 1521 1522 1523 1523 1524 1524 1525 1526 1526 1527 1527 1527 1528 1528 1529 1530 1530 1530 1531 1532 1533 1534 1534 1535 1536 1537 1538 1538 1538 1538 1538 1539 1539 1539 1539 1538 1538 1538
1517 1518 1519 1519 1520 1520 1521 1522 1523 1523 1524 1524 1525 1526 1526 1527 1527 1528 1529 1529 1530 1530 1531 1532 1533 1533 1534 1535 1536 1536 1538 1540 1539 1539 1539 1539 1540 1540 1539 1539 1539 1539 1538
1516 1517 1518 1518 1519 1519 1520 1520 1521 1522 1523 1523 1524 1525 1526 1526 1527 1528 1529 1529 1530 1530 1531 1532 1533 1534 1534 1536 1536 1537 1537 1538 1539 1540 1540 1540 1540 1540 1540 1540 1539 1539 1539
1514 1516 1516 1517 1518 1518 1518 1519 1520 1520 1521 1522 1523 1523 1525 1526 1527 1527 1528 1529 1530 1530 1531 1532 1533 1534 1535 1535 1536 1537 1537 1538 1539 1540 1541 1540 1540 1540 1540 1539 1539 1539 1539
1512 1514 1515 1516 1516 1517 1517 1518 1519 1520 1520 1521 1522 1523 1524 1525 1526 1527 1527 1528 1529 1530 1530 1531 1532 1533 1534 1535 1536 1536 1537 1537 1538 1538 1539 1540 1540 1540 1539 1539 1539 1539 1539
1511 1512 1513 1514 1515 1516 1516 1517 1518 1518 1519 1520 1521 1522 1523 1524 1525 1526 1527 1527 1528 1529 1530 1531 1531 1532 1533 1534 1535 1536 1536 1537 1537 1537 1538 1538 1539 1539 1539 1539 1539 1538 1538